Lapse_Rate
7.5 7.5 7.5 7.3 7.4 7.3 7.2 6.9 6.7 6.8 7.0 6.7 6.3 6.7 6.9 7.1 6.8 7.1 7.3 7.0 6.7 6.6 6.5 6.7 6.7 6.8 6.8 6.9 6.9 6.9 6.9 7.0 7.0 7.0 7.0 6.9 6.9 6.8 6.8 6.8 6.8 6.8 6.9 6.9 7.0 7.0 7.0 7.1 7.0
7.9 7.7 7.4 7.3 7.1 7.3 7.3 6.7 6.7 6.9 7.2 6.3 6.3 6.7 6.7 6.3 6.5 6.9 7.1 6.7 6.4 6.7 6.7 6.8 6.9 6.9 7.0 7.0 6.9 6.9 7.0 7.0 7.0 7.0 7.0 7.0 7.1 7.1 7.1 7.0 7.0 7.0 7.0 6.9 6.9 6.9 6.9 7.0 7.1
8.0 7.8 7.6 7.4 7.0 7.6 7.7 7.2 6.8 7.0 6.9 6.1 6.0 6.4 6.8 6.7 6.5 6.3 6.6 6.4 6.7 6.7 6.8 7.0 7.0 7.0 7.1 7.1 7.0 7.0 7.0 6.9 7.0 7.0 7.1 7.1 7.1 7.0 7.0 7.1 7.0 6.9 6.9 6.9 6.9 6.9 6.9 6.9 7.0
7.9 7.8 7.7 7.4 7.3 7.4 7.3 7.2 6.9 6.8 6.7 6.6 6.8 6.8 6.3 6.4 6.1 5.4 6.0 6.3 6.9 6.8 6.9 7.2 7.2 7.2 7.2 7.1 7.1 7.0 7.0 7.0 7.1 7.1 7.2 7.1 7.0 7.0 7.0 7.0 7.0 7.0 7.0 7.0 6.9 6.9 6.8 6.9 6.9
7.9 7.8 7.8 7.3 7.5 7.7 7.8 7.1 7.1 7.3 6.8 6.5 6.1 6.8 6.2 6.1 6.3 6.1 5.8 6.9 6.8 6.9 7.0 7.3 7.3 7.2 7.1 7.1 7.0 7.0 7.1 7.1 7.1 7.2 7.1 7.0 6.9 6.9 6.9 6.9 7.0 7.0 7.1 7.1 7.0 7.0 6.9 6.8 6.8
7.7 7.8 7.7 7.7 7.6 8.4 8.3 7.7 7.3 7.4 6.4 6.9 7.0 6.8 5.9 5.9 5.8 5.8 6.3 7.1 7.1 7.0 7.3 7.2 7.3 7.1 7.1 7.0 7.0 7.1 7.1 7.2 7.2 7.1 6.9 6.8 6.8 6.8 6.9 6.9 7.0 7.0 7.0 6.9 7.0 6.9 6.8 6.8 6.7
7.8 7.9 8.0 7.8 7.6 8.5 8.2 7.5 7.5 7.2 6.9 7.2 7.5 7.0 6.4 6.5 6.4 6.6 7.1 7.0 7.1 7.1 7.1 7.3 7.2 7.1 7.0 7.1 7.1 7.1 7.2 7.2 7.1 6.9 6.8 6.8 6.8 6.9 7.0 7.0 7.0 6.9 6.9 6.9 6.8 6.8 6.7 6.5 6.4
8.0 8.2 8.1 7.9 7.6 7.7 8.0 7.7 7.7 6.9 7.1 6.9 7.1 6.8 7.3 7.2 6.9 6.7 7.1 7.3 7.3 7.2 7.2 7.2 7.1 7.0 7.0 7.1 7.2 7.2 7.1 7.0 6.9 6.8 6.7 6.7 6.8 6.9 7.0 6.8 6.9 6.8 6.9 6.8 6.7 6.6 6.4 6.2 6.0
8.2 8.5 8.5 8.2 7.7 7.4 7.5 7.7 7.6 7.1 7.1 7.1 7.4 7.6 7.7 7.5 7.0 7.1 7.5 7.6 7.5 7.5 7.3 7.2 7.0 7.0 7.0 7.2 7.1 7.0 6.9 6.8 6.7 6.7 6.7 6.8 6.9 6.9 6.9 6.9 6.9 6.8 6.8 6.8 6.7 6.5 6.3 6.1 5.9
8.4 8.6 8.7 8.5 7.9 7.5 7.7 7.6 7.1 7.4 7.1 7.3 7.4 7.7 7.7 7.3 7.3 7.5 7.6 7.6 7.4 7.3 7.1 6.9 6.9 7.0 7.0 7.0 6.8 6.8 6.7 6.6 6.6 6.7 6.8 6.8 6.8 6.9 6.8 6.7 6.8 6.7 6.8 6.7 6.6 6.4 6.2 6.0 5.8
8.6 8.7 8.5 8.6 8.4 8.2 7.4 7.0 7.7 8.3 7.7 7.8 7.7 7.7 7.7 7.3 7.3 7.3 7.4 7.3 7.0 6.9 6.8 6.9 6.9 6.7 6.7 6.6 6.6 6.5 6.5 6.5 6.5 6.6 6.7 6.9 6.9 6.8 6.7 6.7 6.7 6.8 6.6 6.5 6.3 6.2 6.1 6.0 5.9
8.8 8.6 8.3 8.2 7.7 7.9 8.7 8.3 7.9 7.8 7.9 8.2 7.9 7.7 7.6 7.4 7.3 7.2 7.1 7.1 6.8 6.6 6.7 6.6 6.5 6.6 6.5 6.6 6.5 6.3 6.2 6.2 6.4 6.6 6.8 7.0 7.2 7.1 7.0 6.9 6.7 6.7 6.5 6.3 6.1 5.9 5.8 5.9 5.8
8.8 8.6 8.1 8.0 8.3 8.9 8.4 8.1 8.2 8.2 8.1 8.1 8.1 7.7 7.7 7.6 7.4 7.2 6.9 6.8 6.7 6.3 6.2 6.3 6.3 6.4 6.5 6.4 6.4 6.4 6.4 6.5 6.7 6.7 6.9 7.0 7.2 7.2 7.0 6.8 6.7 6.5 6.3 6.2 6.0 5.5 5.5 5.6 5.7
8.9 8.7 8.8 8.7 8.8 9.0 8.7 8.3 8.4 8.3 8.3 8.0 7.8 7.7 7.7 7.6 7.5 7.3 7.0 6.8 6.6 6.3 6.1 6.1 6.1 6.2 6.3 6.4 6.5 6.4 6.5 6.6 6.7 6.8 6.7 6.6 6.6 6.7 6.7 6.6 6.6 6.3 6.1 5.8 5.8 5.6 5.7 5.7 5.8
8.7 9.4 9.0 9.1 8.7 8.5 8.5 8.3 8.8 8.5 8.3 8.1 8.3 8.1 7.9 7.6 7.2 7.0 6.8 6.6 6.4 6.3 6.1 6.1 6.2 6.5 6.5 6.3 6.3 6.5 6.5 6.6 6.9 6.8 6.4 6.4 6.2 6.6 6.8 6.5 6.4 6.2 6.0 5.8 5.7 5.7 6.0 5.9 5.9
9.0 8.8 8.7 8.5 8.6 8.6 8.5 8.5 8.8 8.7 8.5 8.5 8.4 8.1 7.8 7.7 7.7 7.6 7.3 7.0 7.0 6.8 6.6 6.4 6.5 6.6 6.4 6.4 6.3 6.4 5.9 6.2 6.7 6.2 6.1 6.3 6.4 6.5 6.4 6.4 6.1 5.9 5.8 5.6 5.6 5.9 6.3 6.1 6.1
9.1 9.0 8.9 8.6 8.7 8.8 8.7 8.7 8.7 8.6 8.5 8.4 8.3 8.0 7.9 7.7 7.5 7.4 7.3 7.2 7.1 6.8 6.6 6.4 6.3 6.5 6.4 6.2 6.0 6.1 5.8 6.2 6.4 6.4 6.2 6.2 6.0 6.4 6.3 6.1 5.9 6.0 5.9 5.9 6.1 6.2 6.2 6.1 6.0
8.8 8.8 8.9 8.9 8.8 8.6 8.5 8.7 8.6 8.5 8.3 8.3 8.3 8.2 8.0 7.8 7.5 7.4 7.2 7.1 6.9 7.0 6.9 6.6 6.4 6.2 6.2 6.2 5.6 6.1 6.0 6.0 6.3 6.5 6.5 6.3 6.2 6.3 6.2 6.1 6.2 6.2 6.2 6.1 6.1 5.9 5.6 5.4 5.3
8.9 8.9 9.0 8.9 8.7 8.7 8.7 8.7 8.6 8.5 8.4 8.4 8.3 8.1 8.0 7.7 7.6 7.4 7.0 7.0 7.0 6.8 6.9 6.7 6.1 5.7 6.4 5.6 5.9 5.6 5.8 5.9 6.0 6.0 6.0 6.0 6.2 6.2 6.2 6.2 6.0 5.8 5.7 5.6 5.6 5.6 5.7 5.7 5.6
9.2 9.2 8.9 8.7 8.9 8.8 8.8 8.7 8.6 8.6 8.4 8.2 8.0 7.9 7.7 7.6 7.6 7.4 7.2 7.1 6.9 6.9 7.0 6.7 6.4 6.0 6.0 5.8 5.8 5.6 5.7 5.8 5.8 5.7 5.8 5.9 5.8 6.2 6.3 6.2 6.1 6.0 5.9 5.9 5.9 6.0 6.1 6.1 5.9
9.3 9.2 9.0 8.8 8.7 8.7 8.7 8.5 8.4 8.3 8.2 8.1 8.0 7.9 7.6 7.5 7.6 7.5 7.1 7.0 7.1 7.1 7.0 6.6 6.3 6.3 5.9 5.6 5.7 5.8 5.8 5.8 5.7 5.9 6.1 6.1 6.3 6.6 6.4 6.3 6.3 6.2 6.1 5.9 5.8 5.5 5.4 5.2 5.2
9.0 8.7 8.6 8.5 8.5 8.3 8.2 8.0 7.9 7.9 7.9 7.9 7.8 7.7 7.4 7.2 7.2 7.1 6.9 6.8 6.8 6.9 6.9 6.6 6.3 6.0 5.8 5.9 5.8 5.6 6.0 6.0 6.0 6.0 6.1 6.2 6.2 6.4 6.2 6.1 5.9 5.7 5.4 5.2 4.9 4.8 4.8 4.7 4.7
8.7 8.4 8.5 8.4 8.3 8.1 7.8 7.6 8.0 7.9 7.9 7.7 7.6 7.3 6.8 6.7 6.6 6.5 6.5 6.3 6.4 6.3 6.3 6.4 6.1 5.8 6.0 6.4 6.3 6.2 6.2 6.3 6.4 6.5 6.4 6.3 6.2 6.0 5.6 5.4 5.1 4.8 4.6 4.5 4.4 4.2 4.1 4.1 4.0
8.4 8.2 8.1 8.0 7.9 7.5 7.8 7.5 7.4 7.7 7.7 7.6 7.3 6.9 6.7 6.6 6.5 6.4 6.5 6.5 6.3 6.3 6.3 6.1 6.3 6.3 6.3 6.2 6.5 6.7 6.6 6.5 6.7 6.5 6.1 5.7 5.4 5.1 4.9 4.6 4.4 4.4 4.2 4.0 3.9 3.7 3.5 3.3 3.5
8.1 8.0 7.6 7.6 7.3 7.5 7.1 6.9 7.5 7.3 7.2 7.0 6.7 6.7 6.6 6.5 6.4 6.4 6.4 6.4 6.1 6.3 6.2 6.1 6.0 6.2 6.1 6.2 6.6 6.5 6.3 6.4 6.1 5.6 5.2 4.9 4.8 4.6 4.4 4.3 4.2 4.0 3.9 3.8 3.6 3.6 3.6 3.9 4.1
7.8 7.8 7.8 7.3 7.1 7.1 6.9 6.7 7.2 7.1 7.1 6.8 6.4 6.3 6.4 6.3 6.3 6.3 6.2 6.2 6.1 6.2 6.2 6.1 6.1 6.2 6.1 6.1 6.0 5.8 6.0 5.8 5.5 5.2 5.0 4.8 4.7 4.6 4.4 4.4 4.2 3.9 3.8 4.0 3.9 3.8 3.8 3.9 4.3
7.6 7.5 7.5 7.3 6.5 6.5 6.8 6.9 7.3 7.2 7.2 6.9 6.7 6.5 6.4 6.2 6.3 6.3 6.1 6.1 6.1 6.0 5.8 5.9 5.9 5.9 6.0 5.8 5.6 5.5 5.6 5.4 5.4 5.3 5.1 4.9 4.9 4.9 4.8 4.6 4.3 4.1 4.1 3.8 3.4 3.4 4.0 4.1 4.4
7.6 7.5 7.2 7.2 6.4 6.8 6.5 6.7 7.5 7.4 7.1 6.9 6.7 6.5 6.2 6.3 6.3 6.3 6.3 6.2 6.0 5.9 5.8 5.6 5.8 6.0 6.0 5.8 5.8 5.9 5.8 5.5 5.3 5.1 5.0 5.1 4.9 4.5 4.3 4.1 3.9 3.6 3.4 3.2 3.6 4.0 4.3 4.6 5.1
7.4 7.3 7.4 7.3 7.0 6.6 6.4 7.2 7.6 7.2 6.8 6.7 6.6 6.3 6.2 6.3 6.3 6.2 6.1 5.9 5.9 5.8 5.7 5.6 5.7 5.9 6.0 5.9 5.8 5.4 5.3 5.3 5.2 5.2 5.0 4.7 4.3 4.0 3.7 3.6 3.5 3.4 3.4 3.6 3.8 4.3 4.9 5.5 5.9
7.4 7.4 7.4 7.5 6.8 6.6 6.3 7.0 7.3 7.0 6.7 6.4 6.1 6.1 6.1 6.1 6.1 6.0 5.9 5.9 5.9 5.8 5.7 5.8 6.1 6.1 5.8 5.8 5.5 5.4 5.4 5.4 5.2 4.7 4.5 4.3 4.1 4.0 3.9 3.8 3.7 3.7 3.9 4.2 5.0 5.3 6.0 6.2 6.2
Wind_Speed
2 3 3 2 3 1 0 1 2 4 3 2 3 5 8 7 2 1 6 5 14 12 12 12 17 17 17 17 17 18 19 19 18 18 17 16 15 13 12 12 11 10 10 10 11 12 12 12 12
2 3 2 1 1 3 2 3 6 6 10 9 7 7 4 4 4 6 5 9 15 14 12 14 17 17 17 17 17 18 18 17 16 15 14 13 12 11 10 9 10 10 10 10 11 13 13 13 13
2 3 1 2 2 4 3 7 16 15 9 4 5 4 2 3 5 3 7 11 17 13 13 15 18 18 17 17 16 16 16 16 15 14 13 11 11 10 11 11 11 10 10 10 12 12 12 12 12
1 2 2 1 3 2 3 14 14 14 7 3 8 7 4 3 6 5 9 13 14 13 12 16 18 18 16 16 16 16 16 15 14 13 12 10 10 10 11 11 11 10 10 11 11 11 11 11 11
2 1 2 1 2 1 0 14 7 6 9 6 6 5 5 1 10 15 14 11 13 11 13 14 17 17 15 16 15 16 15 14 12 11 11 10 9 10 11 11 10 10 10 10 10 9 9 9 10
1 0 2 2 1 2 4 10 8 7 3 6 5 11 4 6 11 14 13 11 13 11 12 12 14 15 16 16 16 15 13 12 11 10 10 10 9 10 10 10 9 9 10 10 9 9 9 10 10
1 1 3 3 3 4 5 5 8 8 11 1 8 4 4 6 6 11 12 11 12 11 11 11 11 12 13 14 14 13 12 12 11 11 10 11 10 10 9 9 7 8 8 8 9 8 9 9 9
3 2 4 2 3 5 4 6 8 4 3 3 2 5 6 7 11 12 11 10 8 7 9 9 9 9 10 11 12 11 11 11 10 9 9 10 10 8 8 6 6 6 7 7 8 7 8 9 10
2 1 4 6 6 5 5 5 3 5 5 3 3 2 9 16 14 13 10 7 6 5 6 7 8 8 8 9 10 11 10 10 9 8 8 7 5 5 5 4 4 5 6 6 7 8 9 9 10
3 2 7 6 11 9 6 4 6 1 4 2 4 10 16 16 14 14 11 11 9 9 9 8 8 8 8 7 8 6 6 6 6 6 5 3 3 3 2 2 2 3 5 5 7 7 8 7 7
3 2 6 5 11 18 23 8 1 8 6 5 10 16 16 15 12 12 12 13 14 12 9 8 7 7 5 4 5 5 4 4 4 3 3 2 2 2 2 1 1 2 4 4 5 5 6 7 7
4 2 5 13 7 1 13 9 4 6 2 4 16 20 15 15 14 15 15 14 13 13 10 8 6 5 4 4 3 2 1 1 2 2 3 4 5 4 3 2 0 2 3 3 4 4 4 5 7
3 3 5 6 7 5 7 5 3 3 5 14 16 16 18 14 13 11 10 10 9 10 9 8 8 6 4 4 3 2 1 2 4 4 5 4 6 4 1 3 2 3 3 3 4 4 4 5 5
4 3 4 5 9 4 5 3 4 2 9 13 16 13 11 12 12 10 9 10 9 8 7 6 7 7 6 4 5 5 4 5 4 5 6 5 3 1 2 3 4 5 5 6 6 4 4 5 5
6 7 5 4 5 4 8 3 2 4 11 14 12 10 10 8 7 7 6 9 10 7 7 9 10 11 12 12 11 11 10 9 8 5 4 3 2 3 4 5 6 5 7 7 6 5 5 5 8
4 4 4 1 5 2 2 5 6 3 13 13 12 10 9 5 3 3 4 5 8 7 9 11 11 11 13 12 13 13 13 9 7 8 8 4 5 8 7 7 7 7 8 7 5 5 2 5 5
7 4 3 4 3 5 1 3 6 6 6 8 8 7 6 5 5 7 6 4 3 8 13 14 13 11 9 14 12 13 7 4 5 8 7 8 10 10 11 8 7 7 6 7 6 5 5 6 6
4 5 2 4 1 7 5 3 6 7 8 7 6 6 6 4 6 6 7 8 10 12 13 14 10 9 7 13 5 8 1 3 4 5 8 9 10 9 8 8 7 7 6 5 6 6 5 5 6
4 4 4 1 3 6 4 4 6 4 7 7 6 5 6 7 4 6 9 10 13 14 15 14 12 7 8 3 4 5 3 2 4 6 8 9 9 8 7 6 6 6 5 5 5 4 7 6 5
3 6 3 3 4 4 3 6 6 6 3 4 8 8 8 9 9 8 10 10 11 12 11 7 10 10 8 8 6 3 3 2 4 6 7 6 6 7 7 6 6 7 4 4 4 5 5 5 5
5 5 3 4 4 7 3 2 2 5 7 8 7 8 9 11 12 9 8 8 7 9 9 10 9 8 6 5 5 4 4 3 4 3 3 6 6 7 6 6 5 3 3 3 4 5 6 6 5
4 1 4 5 2 2 3 2 2 3 5 7 9 8 8 9 8 7 9 10 8 7 7 10 9 10 8 6 3 2 1 2 3 2 3 3 4 5 3 2 2 1 1 3 4 4 4 5 6
4 3 4 3 4 3 2 1 3 5 6 9 8 8 8 7 8 11 10 9 5 4 5 7 9 7 5 5 5 3 5 4 3 2 1 1 1 1 1 2 3 3 3 3 4 3 4 3 5
8 5 6 4 2 0 1 2 2 4 5 11 9 9 10 10 9 8 7 8 6 4 4 6 7 8 7 7 8 8 7 4 2 2 3 3 3 4 5 6 6 6 5 4 3 4 4 5 4
4 4 2 0 1 3 0 3 4 3 6 16 17 14 13 11 10 9 8 5 4 5 5 5 7 7 6 7 7 7 5 3 4 4 4 5 3 4 7 10 9 6 5 4 5 5 5 5 6
2 3 4 4 3 1 2 4 2 3 5 7 12 14 13 11 9 8 7 7 5 5 5 6 7 7 5 5 6 4 2 2 2 3 4 4 5 6 9 8 7 7 7 8 7 6 5 6 5
3 2 2 6 1 1 1 3 4 1 2 10 15 13 12 11 8 7 6 6 6 6 4 6 7 6 4 4 2 1 2 4 5 7 6 6 8 8 9 8 8 10 10 9 8 6 7 6 6
1 7 3 2 4 3 2 4 4 3 6 9 13 14 9 5 5 6 6 6 6 6 6 6 5 3 2 3 4 5 5 5 6 6 8 9 10 12 10 10 9 9 9 9 8 8 7 6 5
2 2 5 4 1 3 1 3 3 7 9 15 14 7 7 8 8 8 8 7 7 7 6 6 4 4 3 3 2 3 4 5 5 6 7 8 10 11 9 10 9 8 7 8 6 6 6 4 3
1 3 4 3 4 1 1 4 1 4 8 7 7 7 9 11 10 9 8 7 7 8 7 5 4 4 5 3 3 4 4 5 5 5 7 9 9 12 11 11 8 8 7 6 5 7 3 2 3
Wind_Direction
238 140 119 114 212 44 79 118 75 114 82 68 82 119 102 59 88 23 107 111 128 127 132 142 139 133 131 134 132 127 121 120 120 113 107 106 103 103 100 95 92 87 79 76 74 66 60 53 44
191 130 72 128 245 154 177 259 129 132 126 110 80 92 75 82 69 110 98 123 124 122 127 139 137 133 137 136 134 126 122 117 114 111 110 108 106 104 100 100 93 85 77 71 66 64 60 56 51
215 45 172 131 167 182 140 121 117 124 157 170 132 56 90 111 73 64 116 135 123 120 129 135 137 139 139 139 131 121 117 118 119 120 115 112 109 106 102 96 90 89 86 78 73 71 66 59 49
185 82 79 202 225 181 80 140 129 131 86 317 142 83 88 70 129 113 132 134 119 121 131 134 140 141 139 130 123 123 127 132 129 120 117 114 113 105 94 95 96 94 90 85 79 72 67 60 50
45 86 105 72 307 300 101 150 143 116 117 195 267 139 75 9 136 137 142 142 127 129 133 139 143 141 134 129 132 137 140 133 124 120 122 118 112 105 104 99 98 98 94 88 82 76 65 59 49
105 66 111 164 344 356 86 134 109 83 305 181 105 114 117 132 144 143 142 135 137 136 138 144 143 145 142 140 144 143 138 132 126 123 124 119 116 109 104 102 102 94 90 85 74 65 65 64 52
113 123 116 118 67 86 104 129 118 133 231 354 102 92 106 138 152 130 132 128 130 136 144 147 153 155 149 146 149 144 139 135 140 138 133 125 117 106 107 102 92 89 89 79 73 62 58 44 47
138 126 113 66 86 53 106 125 152 92 179 107 101 173 159 173 135 123 116 119 129 139 151 158 160 164 152 151 153 146 143 148 141 139 132 126 115 112 100 100 84 74 65 51 46 33 29 27 26
142 149 131 152 118 108 101 92 343 135 128 66 41 122 127 137 132 124 123 125 143 161 173 171 170 162 153 155 155 153 152 145 149 138 138 127 125 123 119 91 70 50 40 33 19 15 11 10 23
209 150 176 180 145 142 358 271 167 114 177 108 65 89 124 138 146 145 157 163 175 182 191 187 177 166 162 157 151 141 144 151 159 156 146 141 144 164 157 104 60 44 27 16 14 16 18 24 19
200 157 158 196 185 173 188 150 148 145 219 197 182 148 142 142 150 160 169 181 185 190 187 182 177 164 146 134 134 147 155 158 159 174 173 184 223 234 242 223 19 40 33 14 13 29 41 30 19
208 179 151 168 228 152 145 131 137 168 311 174 154 144 146 160 167 179 186 186 190 197 182 172 156 113 89 59 65 77 119 187 214 234 235 245 249 251 279 299 351 61 55 54 60 53 48 51 48
192 154 170 219 114 73 123 128 136 150 87 118 137 157 163 166 174 192 202 201 197 202 173 174 153 121 104 84 73 55 316 303 299 297 289 292 305 314 33 84 60 56 57 52 62 57 61 52 41
173 106 148 161 147 132 102 96 149 96 132 127 158 156 157 173 183 196 210 215 206 209 181 150 126 117 101 72 37 24 354 336 310 315 322 314 299 50 63 92 89 63 55 63 58 55 32 16 12
128 97 85 72 125 157 119 50 282 153 150 151 159 153 162 179 185 215 232 229 219 205 155 136 120 113 99 90 74 54 31 35 39 27 32 96 105 93 88 85 75 68 67 49 61 28 21 11 348
89 70 117 62 160 133 159 153 3 141 158 158 156 154 158 118 88 28 338 282 230 190 145 127 119 109 95 81 67 55 39 43 71 51 60 62 83 93 94 88 72 76 60 58 35 19 4 352 338
27 141 108 127 22 127 96 130 357 4 134 131 130 130 135 113 57 27 14 5 195 148 132 126 126 117 97 79 70 62 42 64 86 96 113 108 99 97 98 90 84 66 62 40 16 12 356 340 341
179 124 95 147 113 44 93 66 10 27 119 107 105 121 121 84 27 39 65 86 103 113 117 115 103 92 84 87 91 89 218 118 102 109 108 98 92 93 95 88 72 53 46 36 20 8 356 340 345
138 110 138 92 38 93 81 87 31 73 94 113 119 121 94 78 66 84 94 107 116 120 128 136 136 147 121 134 134 157 191 140 99 83 78 73 73 74 75 77 69 54 47 42 25 355 347 336 336
106 119 83 86 8 101 148 73 64 64 79 136 141 130 121 116 104 93 99 116 131 139 139 132 131 156 152 156 174 152 150 107 82 67 71 79 72 68 67 60 55 47 41 29 12 359 334 320 342
57 107 135 124 98 69 127 101 41 61 92 110 113 127 129 127 124 116 111 109 120 134 145 147 141 137 150 173 131 108 105 124 170 147 91 59 54 60 64 68 69 65 26 358 345 344 346 329 328
88 28 104 115 127 145 320 242 270 141 129 137 141 150 146 150 136 141 143 132 144 149 144 132 129 135 137 137 142 158 92 67 53 48 88 73 46 62 65 99 116 90 340 330 334 342 342 327 322
124 110 90 104 94 142 51 247 128 164 180 171 168 173 178 177 167 166 162 137 135 154 140 130 120 105 106 105 94 87 71 66 69 68 93 25 3 345 246 217 221 272 295 308 316 321 325 314 301
153 83 55 54 62 16 52 222 232 198 199 183 189 189 184 187 186 174 166 163 164 161 140 107 101 93 82 82 74 84 84 84 64 25 344 308 290 275 251 245 255 266 265 272 281 289 290 293 273
76 69 22 34 179 225 126 196 274 232 204 184 184 185 188 188 186 184 175 164 154 119 115 116 100 89 88 93 99 96 104 83 29 353 328 310 283 259 253 243 251 276 285 282 271 265 271 272 269
96 158 163 204 200 212 210 229 178 260 242 198 183 179 185 192 191 183 175 173 165 152 157 128 125 124 120 123 113 121 102 29 338 283 279 275 268 269 268 262 272 273 259 250 250 260 275 279 273
159 125 132 108 37 290 264 260 254 55 106 174 180 183 190 192 183 180 167 164 161 151 138 142 136 131 138 119 106 49 315 330 319 303 282 278 279 285 292 278 270 265 264 270 271 271 282 278 291
135 138 130 42 152 232 264 279 254 228 185 177 183 196 186 153 124 119 115 115 107 113 118 104 88 100 111 55 23 4 346 320 298 289 285 295 304 301 291 281 275 278 283 280 277 277 286 286 288
141 125 67 103 121 169 256 249 216 252 201 190 195 191 148 131 121 113 108 108 108 102 102 101 82 57 19 23 13 337 328 308 315 322 317 312 304 301 288 278 276 277 279 278 257 271 284 269 280
169 148 139 132 185 85 142 268 301 285 224 188 167 136 129 129 125 120 121 123 112 103 102 102 92 72 51 46 8 6 356 354 346 346 342 337 321 309 294 292 290 291 286 287 295 269 241 304 299